[[{"header":{"parameterUnit":"m.s-1","parameterCategory":1,"la1":30.2991,"la2":30.254,"lo1":-89.0895,"lo2":-89.0444,"dy":0.0017,"dx":0.0017,"nx":28,"ny":28,"refTime":"2025-07-19T03:00:00:Z","depth":0,"parameterNumber":2,"parameterNumberName":"U-component_of_WINDS"},"data":[0,0,0,0,0,0,0,0,0,0,0,0,0,0,0,0,0,0,0,0,0,0,0,0,0,0,0,0,0,0,0,0,0,0,0,0,0,0,0,0,0,0,0,0,0,0,0,0,0,0,0,0,0,0,0,0,0,0,0.4503,0.4504,0,0.4643,0.4644,0.4646,0.4718,0.4718,0.4718,0.4719,0.4863,0.4867,0.487,0,0,0,0,0,0,0,0,0,0,0,0,0,0.4298,0.4302,0.4503,0.4504,0.4506,0.4642,0.4644,0.4646,0.4718,0.4718,0.4718,0.4719,0.4862,0.4866,0.4871,0,0,0,0,0,0,0,0,0,0,0,0,0,0.4408,0.4303,0.4502,0.4558,0.4565,0.4642,0.4644,0.4647,0.4718,0.4718,0.4718,0.4719,0.486,0.4866,0.4871,0.4904,0,0,0.4889,0.4891,0,0,0,0,0,0,0,0,0.4401,0.4415,0.4548,0.4555,0.4562,0.4663,0.4626,0.4733,0.4718,0.466,0.4719,0.4719,0.4797,0.4807,0.4834,0.4911,0.4917,0.4889,0.4893,0.4895,0.4897,0,0,0,0,0,0,0,0.4394,0.4409,0.4558,0.455,0.4559,0.4577,0.4593,0.4646,0.4726,0.4665,0.4671,0.4686,0.48,0.4828,0.4837,0.4919,0.4889,0.4894,0.4898,0.49,0.503,0.503,0,0,0,0,0,0,0.4377,0.4403,0.4554,0.4562,0.448,0.458,0.4598,0.4631,0.4726,0.474,0.4686,0.4689,0.4818,0.4831,0.4843,0.4887,0.4895,0.49,0.4904,0.503,0.503,0.503,0,0,0,0,0,0,0.4372,0.439,0.4548,0.4484,0.4506,0.4584,0.462,0.4633,0.4661,0.4741,0.4756,0.4699,0.4819,0.4835,0.4888,0.4893,0.4903,0.4908,0.503,0.503,0.503,0.4976,0,0,0,0,0,0,0.4366,0.4388,0.44,0.4484,0.4509,0.459,0.462,0.4636,0.467,0.4676,0.4758,0.4772,0.482,0.4879,0.4894,0.4901,0.4912,0.503,0.503,0.503,0.4977,0.4974,0.4971,0,0,0,0,0,0.4359,0.438,0.4401,0.4419,0.4526,0.4591,0.4605,0.466,0.467,0.4684,0.4736,0.4769,0.489,0.4884,0.4901,0.491,0.503,0.503,0.503,0.4979,0.4975,0.4971,0,0,0,0,0,0,0.4296,0.4392,0.4416,0.4465,0.4519,0.4603,0.4622,0.4654,0.4706,0.4709,0.4776,0.4794,0.4841,0.4881,0.4872,0.4947,0.4963,0.4967,0.4919,0.4915,0.4912,0.4901,0.4917,0,0,0,0,0,0.4287,0.4331,0.4413,0.4448,0.4474,0.4543,0.4573,0.4611,0.467,0.4693,0.4749,0.4805,0.4856,0.4888,0.4939,0.4983,0.5002,0.4998,0.4995,0.4992,0.4994,0.5021,0.502,0.503,0.503,0.503,0,0,0.4271,0.4329,0.4352,0.4437,0.4483,0.4527,0.4562,0.4607,0.4641,0.47,0.4754,0.4796,0.4863,0.4912,0.4937,0.4947,0.4995,0.4992,0.4989,0.4993,0.5021,0.502,0.5019,0.5031,0.5031,0.5031,0,0,0.4263,0.4311,0.4346,0.4392,0.4461,0.4507,0.4515,0.4594,0.4624,0.4679,0.4725,0.4766,0.4852,0.4898,0.4932,0.4941,0.4974,0.4956,0.4939,0.4965,0.4964,0.4963,0.4967,0.4967,0.4958,0.4958,0.4958,0,0.4234,0.4302,0.436,0.4403,0.4438,0.4494,0.4529,0.4571,0.4654,0.4677,0.4688,0.4797,0.4846,0.4906,0.4908,0.4935,0.4946,0.4947,0.4959,0.4959,0.496,0.4964,0.4965,0.4956,0.4956,0.4956,0.4956,0,0.4263,0.4309,0.4329,0.4407,0.4445,0.4484,0.4548,0.4579,0.4614,0.4658,0.4713,0.4774,0.4838,0.4855,0.4889,0.4921,0.4925,0.4946,0.4964,0.4955,0.496,0.4962,0.4952,0.4953,0.4954,0.4954,0,0,0.4219,0.4329,0.4335,0.4371,0.4452,0.4489,0.453,0.4593,0.4619,0.4674,0.471,0.4782,0.4802,0.4841,0.4881,0.4903,0.4906,0.4922,0.4924,0.4917,0.4944,0.4928,0.4928,0.4928,0.4928,0.4929,0.4939,0,0.4223,0.43,0.4353,0.4409,0.4453,0.4506,0.4542,0.4595,0.4638,0.4681,0.4729,0.4778,0.4801,0.4825,0.4849,0.49,0.4913,0.4901,0.4963,0.4964,0.4944,0.4931,0.4914,0.492,0.4941,0.4941,0.4942,0,0.4238,0.4291,0.4351,0.4427,0.4448,0.4479,0.4541,0.4581,0.4643,0.4673,0.4716,0.4756,0.4803,0.4816,0.4881,0.4871,0.49,0.4929,0.4931,0.4939,0.4952,0.4939,0.4923,0.4924,0.4945,0.4945,0.4945,0,0.42,0.4287,0.4334,0.4364,0.4453,0.4474,0.4512,0.4574,0.4608,0.4662,0.4685,0.4744,0.4776,0.482,0.4875,0.488,0.4934,0.4953,0.496,0.4959,0.497,0.4968,0.4958,0.4987,0.4987,0.4987,0.4987,0,0.4199,0.4234,0.4319,0.4347,0.4388,0.4449,0.4487,0.453,0.4585,0.4623,0.4673,0.4708,0.4779,0.4822,0.4866,0.4913,0.4927,0.4952,0.4963,0.4948,0.4944,0.4968,0.4969,0.4988,0.4988,0.4988,0.4988,0,0.4164,0.4222,0.4277,0.4358,0.4379,0.4405,0.4474,0.4504,0.4549,0.4597,0.4612,0.4683,0.4737,0.4796,0.487,0.49,0.4944,0.496,0.4923,0.4929,0.4933,0.4932,0.4938,0.4942,0.4968,0.4967,0.4967,0,0.4159,0.4187,0.4271,0.43,0.4337,0.4383,0.4418,0.4479,0.4514,0.4586,0.4607,0.4665,0.4714,0.4798,0.4856,0.4913,0.4931,0.4929,0.494,0.4923,0.4931,0.4929,0.4932,0.4926,0.4925,0.4925,0.4925,0,0.4145,0.4172,0.4221,0.4279,0.432,0.4369,0.442,0.4441,0.4512,0.4548,0.4604,0.4642,0.4717,0.4774,0.4838,0.4878,0.4913,0.4921,0.4926,0.491,0.4887,0.49,0.4914,0.492,0.4921,0.4921,0.4921,0.4922,0.4126,0.4153,0.4216,0.4268,0.4313,0.4359,0.4391,0.4441,0.4488,0.4554,0.4587,0.4642,0.4703,0.4793,0.4831,0.4876,0.4887,0.4894,0.4896,0.4896,0.4892,0.488,0.4887,0.4888,0.4888,0.4888,0.4888,0,0.4114,0.4157,0.4204,0.4274,0.4315,0.4344,0.4402,0.4435,0.4483,0.4537,0.4584,0.4648,0.4703,0.4765,0.4824,0.4848,0.4865,0.4861,0.486,0.4869,0.4879,0.4869,0.4846,0.4846,0.4846,0.4846,0.4846,0.4846,0.4112,0.416,0.4195,0.4265,0.4308,0.4363,0.4393,0.4436,0.448,0.4548,0.4594,0.4635,0.4692,0.4756,0.4807,0.4824,0.4844,0.4835,0.4856,0.4864,0.4868,0.4871,0.4862,0.4838,0.4838,0.4843,0.4843,0.4843]},{"header":{"parameterUnit":"m.s-1","parameterCategory":1,"la1":30.2991,"la2":30.254,"lo1":-89.0895,"lo2":-89.0444,"dy":0.0017,"dx":0.0017,"nx":28,"ny":28,"refTime":"2025-07-19T03:00:00:Z","depth":0,"parameterNumber":3,"parameterNumberName":"V-component_of_WINDS"},"data":[0,0,0,0,0,0,0,0,0,0,0,0,0,0,0,0,0,0,0,0,0,0,0,0,0,0,0,0,0,0,0,0,0,0,0,0,0,0,0,0,0,0,0,0,0,0,0,0,0,0,0,0,0,0,0,0,0,0,4.1803,4.1802,0,4.1717,4.1716,4.1715,4.1682,4.1682,4.1683,4.1683,4.1587,4.1584,4.1582,0,0,0,0,0,0,0,0,0,0,0,0,0,4.1933,4.1931,4.1803,4.1802,4.1801,4.1717,4.1716,4.1715,4.1682,4.1682,4.1683,4.1683,4.1588,4.1585,4.1581,0,0,0,0,0,0,0,0,0,0,0,0,0,4.1864,4.193,4.1804,4.1775,4.1772,4.1717,4.1716,4.1714,4.1682,4.1682,4.1683,4.1683,4.1589,4.1585,4.1581,4.1546,0,0,4.1568,4.1566,0,0,0,0,0,0,0,0,4.1868,4.186,4.178,4.1777,4.1773,4.1711,4.1726,4.1658,4.1682,4.1716,4.1683,4.1684,4.1627,4.162,4.1603,4.1542,4.1538,4.1568,4.1565,4.1563,4.1562,0,0,0,0,0,0,0,4.1873,4.1863,4.1769,4.1779,4.1775,4.1764,4.1755,4.1713,4.167,4.1713,4.171,4.1701,4.1625,4.1607,4.16,4.1536,4.1568,4.1564,4.1561,4.156,4.1442,4.1442,0,0,0,0,0,0,4.1884,4.1867,4.1772,4.1766,4.1823,4.1762,4.1751,4.173,4.1671,4.1662,4.1701,4.17,4.1614,4.1605,4.1597,4.1552,4.1563,4.1559,4.1557,4.1443,4.1442,4.1442,0,0,0,0,0,0,4.1887,4.1875,4.1775,4.1816,4.1803,4.1759,4.1736,4.1728,4.171,4.1661,4.1653,4.169,4.1614,4.1603,4.156,4.1549,4.1557,4.1554,4.1444,4.1443,4.1442,4.1464,0,0,0,0,0,0,4.189,4.1877,4.1865,4.1816,4.1801,4.1742,4.1735,4.1726,4.1704,4.1702,4.1649,4.1641,4.1613,4.1566,4.1556,4.1543,4.155,4.1444,4.1443,4.1442,4.1464,4.1464,4.1464,0,0,0,0,0,4.1895,4.1873,4.1864,4.1853,4.1785,4.1741,4.1732,4.1703,4.1703,4.1689,4.1658,4.1643,4.1552,4.1562,4.155,4.1536,4.1445,4.1444,4.1442,4.1464,4.1464,4.1464,0,0,0,0,0,0,4.1918,4.1866,4.1856,4.1818,4.1785,4.1736,4.1718,4.1704,4.1668,4.1667,4.163,4.1619,4.1579,4.1553,4.1565,4.1499,4.1497,4.1493,4.1518,4.1517,4.1517,4.1524,4.1547,0,0,0,0,0,4.1919,4.1891,4.1845,4.1815,4.18,4.1762,4.1742,4.1722,4.1685,4.167,4.1636,4.1599,4.1562,4.1538,4.1501,4.146,4.1447,4.1444,4.1444,4.1444,4.1441,4.1417,4.1415,4.1437,4.1437,4.1437,0,0,4.192,4.1888,4.1872,4.1819,4.1791,4.176,4.175,4.1717,4.1693,4.1664,4.1623,4.1596,4.1552,4.151,4.1489,4.1487,4.1432,4.1443,4.1443,4.144,4.1415,4.1413,4.1412,4.1436,4.1437,4.1437,0,0,4.1906,4.188,4.1852,4.1825,4.1784,4.1759,4.1753,4.1706,4.1688,4.1646,4.1624,4.1594,4.1531,4.15,4.1477,4.1452,4.1436,4.1441,4.144,4.1417,4.1415,4.1413,4.1404,4.1401,4.1438,4.1438,4.1438,0,4.1912,4.1867,4.1839,4.1808,4.1785,4.1761,4.1732,4.1706,4.1653,4.1637,4.1636,4.1557,4.1526,4.1476,4.147,4.1452,4.1442,4.1446,4.1418,4.1416,4.1414,4.1405,4.1401,4.1439,4.1439,4.1439,4.1439,0,4.1875,4.1844,4.1826,4.178,4.1755,4.1725,4.1691,4.1668,4.1651,4.1626,4.1583,4.1545,4.15,4.1486,4.1468,4.1434,4.1434,4.1426,4.1423,4.1413,4.1404,4.14,4.144,4.144,4.144,4.1439,0,0,4.1873,4.1813,4.1807,4.1785,4.1738,4.1712,4.168,4.1639,4.162,4.1585,4.1556,4.1504,4.1497,4.147,4.1448,4.1428,4.1411,4.1422,4.1421,4.1421,4.137,4.1376,4.1372,4.14,4.1399,4.1399,4.1373,0,4.1852,4.1797,4.1772,4.1727,4.1697,4.1674,4.1646,4.1613,4.1588,4.1557,4.1529,4.1493,4.1486,4.147,4.1449,4.1418,4.14,4.1419,4.1371,4.137,4.1383,4.1367,4.1373,4.1351,4.1369,4.1369,4.1368,0,4.1821,4.1789,4.1742,4.17,4.1686,4.1662,4.1622,4.1593,4.1555,4.1538,4.1509,4.1488,4.1452,4.1452,4.1401,4.1414,4.1393,4.1375,4.1373,4.1367,4.1368,4.136,4.1344,4.134,4.1362,4.1363,4.1363,0,4.1824,4.1768,4.1733,4.1716,4.1665,4.1648,4.1626,4.1588,4.1565,4.1529,4.1514,4.1473,4.1451,4.1419,4.1387,4.1391,4.1338,4.1336,4.1322,4.1323,4.1312,4.1313,4.1291,4.1299,4.1299,4.1299,4.1299,0,4.1803,4.1775,4.1734,4.1712,4.168,4.165,4.1618,4.1593,4.156,4.1532,4.1508,4.1481,4.1441,4.1409,4.1383,4.1344,4.1334,4.1318,4.1312,4.132,4.1322,4.1305,4.1306,4.1298,4.1298,4.1298,4.1299,0,4.18,4.1772,4.1732,4.1688,4.1676,4.1654,4.1615,4.1592,4.1567,4.1531,4.1521,4.1481,4.1441,4.1407,4.1354,4.1337,4.1297,4.1289,4.1311,4.1307,4.1295,4.1296,4.1261,4.1254,4.1267,4.1267,4.1267,0,4.1789,4.1767,4.1722,4.1703,4.1682,4.165,4.1627,4.1597,4.1573,4.1528,4.151,4.147,4.1436,4.1374,4.1338,4.1298,4.1288,4.1279,4.1282,4.1291,4.1287,4.1289,4.1286,4.1279,4.1279,4.1279,4.1279,0,4.1772,4.1759,4.1729,4.1693,4.1667,4.1637,4.1606,4.159,4.1553,4.1528,4.1489,4.1463,4.1411,4.137,4.1326,4.13,4.1282,4.1278,4.1273,4.1281,4.1294,4.1286,4.131,4.1279,4.1279,4.1279,4.1279,4.1279,4.1764,4.1744,4.1709,4.1676,4.165,4.1621,4.1598,4.1571,4.1539,4.1496,4.1479,4.1439,4.14,4.1339,4.1313,4.128,4.1277,4.1269,4.1267,4.1265,4.1267,4.13,4.1272,4.1272,4.1272,4.1272,4.1272,0,4.1745,4.1722,4.1692,4.1651,4.1624,4.1613,4.1578,4.1556,4.1522,4.1488,4.1456,4.1411,4.1372,4.1334,4.1293,4.1273,4.1264,4.1263,4.1264,4.1258,4.1272,4.1281,4.1271,4.1271,4.1271,4.1271,4.1271,4.1271,4.1733,4.1698,4.1681,4.1633,4.1609,4.1573,4.1553,4.1526,4.15,4.1452,4.142,4.1397,4.1361,4.1316,4.1279,4.1269,4.1254,4.1256,4.1243,4.1257,4.1257,4.1257,4.1266,4.1253,4.1253,4.1232,4.1231,4.1231]}]]